www.pogodaiklimat.ru

Погода и климат >> Архив погоды >> Туркменистан >> Гаррыгала


ПОГОДА в Гаррыгале

  • Прогноз погоды в Гаррыгале
  • Монитор погоды в Гаррыгале

АРХИВ ПОГОДЫ в Гаррыгале

Время (UTC), дата Ветер
(напр.,м/с)
 
Видим.   Явления Облачность Т
(С)
Тd
(С)
f
(%)
Тe
(С)
Тes
(С)
Комфортность P
(гПа)
Po
(гПа)
Тmin
(С)
Tmax
(С)
R
(мм)
R24
(мм)
S
(см)
12 17.06 З 2 50 км 3/3 1000 м
[Cu med, cong]
+38.7 +9.2 17 +37 +44 очень
жарко
1002.9 969.2
15 17.06 штиль 0 50 км ясно +37.4 +9.7 19 +36 +36 очень
жарко
1002.7 969.0 +39.0
18 17.06 штиль 0 10 км ясно +28.6 +11.4 34 +29 +29 жарко 1004.9 970.1 +39.0
21 17.06 штиль 0 10 км ясно +26.9 +12.5 41 +28 +28 жарко 1006.1 971.1
00 18.06 штиль 0 10 км ясно +20.9 +13.4 62 +23 +23 комфорт 1006.8 971.1
03 18.06 штиль 0 50 км ясно +22.7 +15.1 62 +27 +31 душно 1008.8 973.3 +20.6
06 18.06 З 3 50 км 4/0
[Ac cast]
+29.6 +16.7 46 +33 +43 душно 1007.8 973.1 +20.6
09 18.06 З 4 50 км 6/0
[Ac trans]
+33.7 +16.4 36 +37 +45 очень
душно
1006.6 972.4
12 18.06 З 1 50 км 4/0
[Ac trans]
+35.8 +12.9 25 +36 +44 очень
жарко
1004.8 970.9
15 18.06 З 2 50 км 4/0
[Ac trans]
+35.0 +14.8 30 +36 +37 очень
жарко
1004.2 970.2 +36.0
18 18.06 штиль 0 10 км ясно +28.4 +17.5 52 +33 +33 очень
душно
1006.0 971.2 +36.0
21 18.06 штиль 0 10 км 4/4 600 м
[Cb cap Ac trans]
+24.2 +16.0 60 +27 +27 жарко 1007.4 972.0
00 19.06 штиль 0 10 км 8/6 600 м
[Cb cap Ac trans]
+22.7 +14.2 59 +26 +26 жарко 1007.3 971.8
03 19.06 штиль 0 50 км 3/0
[Ac trans]
+22.6 +15.4 64 +27 +30 душно 1008.7 973.2 +22.4
06 19.06 штиль 0 50 км ясно +29.2 +14.1 40 +31 +53 опасность
солнечного
удара
1007.4 972.6 +22.4
09 19.06 З 4 50 км 3/0
[Ac cuf]
+33.2 +13.6 31 +34 +45 очень
жарко
1005.8 971.5
15 19.06 штиль 0 50 км 4/4 1000 м
[Cu med, cong]
+34.4 +13.8 29 +35 +35 очень
жарко
1004.3 970.2 +35.8
18 19.06 З 2 10 км ясно +30.1 +17.4 47 +34 +34 очень
душно
1007.3 972.6 +35.8
21 19.06 штиль 0 10 км ясно +26.6 +18.3 60 +31 +31 душно 1007.7 972.7
00 20.06 штиль 0 10 км ясно +22.7 +18.1 75 +28 +28 душно 1008.3 972.8
03 20.06 З 1 50 км ясно +24.0 +18.7 72 +29 +33 душно 1009.5 974.2 +22.5
06 20.06 штиль 0 50 км 3/3 1000 м
[Cu hum]
+28.4 +18.7 56 +34 +49 очень
душно
1009.0 974.2 +22.5
09 20.06 З 2 50 км 3/3 1000 м
[Cu med, cong]
+33.6 +17.4 38 +37 +51 опасность
солнечного
удара
1005.8 971.6
12 20.06 В 2 50 км 3/3 1000 м
[Cu med, cong]
+37.0 +12.4 23 +37 +43 очень
жарко
1003.1 969.3
15 20.06 В 2 50 км ясно +35.8 +9.5 20 +34 +35 очень
жарко
1002.7 968.8 +37.3
18 20.06 штиль 0 10 км ясно +29.0 +13.6 39 +31 +31 жарко 1004.7 970.0 +37.3
21 20.06 штиль 0 10 км ясно +24.7 +13.4 49 +27 +27 жарко 1005.5 970.2
00 21.06 штиль 0 10 км 4/0
[Ac trans]
+22.7 +13.8 57 +26 +26 жарко 1005.9 970.5
03 21.06 штиль 0 50 км 3/0
[Ac cuf]
+23.9 +15.2 58 +27 +30 жарко 1006.9 971.5 +22.5
06 21.06 З 3 50 км 4/0
[Ac cast]
+30.2 +19.2 52 +36 +45 очень
душно
1007.2 972.7 +22.5
09 21.06 З 4 50 км 8/0
[Ac As]
+34.1 +17.4 37 +38 +44 очень
душно
1005.3 971.1
12 21.06 З 1 50 км 4/0
[Ci sp]
+38.2 +9.4 18 +37 +45 очень
жарко
1003.0 969.3
15 21.06 С 2 50 км 6/0
[Ac cuf]
+36.5 +6.2 16 +34 +34 очень
жарко
1003.6 969.7 +38.5
18 21.06 штиль 0 10 км ясно +29.4 +13.1 37 +31 +31 жарко 1006.5 971.7 +38.5
21 21.06 штиль 0 10 км 10/8 600 м
[Cb cap Ac As]
+29.0 +18.3 52 +34 +34 очень
душно
1007.0 972.2
00 22.06 штиль 0 10 км 9/6 600 м
[Cb cap Ac trans]
+26.0 +18.3 63 +31 +31 очень
душно
1008.9 973.7
03 22.06 штиль 0 50 км 8/5 600 м
[Cb cap Ac trans]
+25.6 +20.8 75 +32 +33 очень
душно
1011.7 976.4 +25.3
06 22.06 В 3 50 км 8/5 600 м
[Cb cap Ac trans]
+28.2 +19.1 58 +34 +38 очень
душно
1010.3 975.4 +25.3
09 22.06 З 2 50 км 8/5
[Cb cap Ac trans]
+31.6 +18.9 47 +37 +43 очень
душно
1010.0 975.4
12 22.06 З 4 50 км 6/3 600 м
[Cb cap Ac trans]
+35.0 +18.4 38 +39 +43 очень
душно
1008.4 974.2
18 22.06 штиль 0 10 км 3/0
[Ac trans]
+28.6 +11.7 35 +29 +29 жарко 1010.4 975.4 +36.8
21 22.06 штиль 0 10 км ясно +24.8 +10.6 41 +26 +26 жарко 1011.1 975.6
00 23.06 штиль 0 10 км ясно +22.5 +17.4 73 +27 +27 душно 1012.2 976.6
03 23.06 штиль 0 50 км ясно +22.7 +16.9 70 +27 +32 душно 1013.5 977.8 +22.3
06 23.06 З 1 50 км ясно +30.5 +16.7 43 +34 +52 опасность
солнечного
удара
1012.2 977.5 +22.3
09 23.06 В 5 50 км ясно +37.7 +2.7 11 +34 +45 очень
жарко
1010.2 976.2
03 24.06 штиль 0 50 км ясно +24.3 +9.7 40 +25 +30 комфорт 1011.9 976.4 +20.1

 

Местоположение метеостанции Гаррыгала (Балканский велаят, Туркменистан): широта 38.43 долгота 56.30 высота над уровнем моря 312 м.

В архиве по умолчанию представлена погода в Гаррыгале за последнюю неделю. Архивные данные за месяц целиком и за предыдущие месяцы, начиная с января 2011 года, Вы можете получить, выбрав интересующий диапазон дат из раскрывающегося списка и нажав кнопку "Ввод!".


*Определитесь, кто Вы:
робот инопланетянин человек

Внимание! Время в таблицах - всемирное. Для получения местного времени необходимо прибавить поправку, которая равна 5 ч.

Смотрите также архив погоды в соседних городах и на ближайших метеорологических станциях:

Погода в Сердаре (Балканский велаят, Туркменистан) (61 км)
Погода в Мараве Таппе (Иран) (66 км)
Погода в Unknown (Туркменистан) (78 км)
Погода в Бахарлы (Ахалский велаят, Туркменистан) (98 км)
Погода в Газаджаке (Лебапский велаят, Туркменистан) (114 км)
Погода в Боджнурде (Иран) (140 км)
Погода в Гызылетреке (Балканский велаят, Туркменистан) (161 км)
Погода в Ашхабаде (город Ашхабад, Туркменистан) (186 км)
Погода в Небит-Даге (Балканский велаят, Туркменистан) (208 км)
Погода в Ербенте (Ахалский велаят, Туркменистан) (222 км)

Пояснения к столбцам:

Ветер - указаны скорость ветра в м/с - средняя за 10 мин, порывы в срок и между сроками (в фигурных скобках) и направление, откуда дует ветер: С - северный, СВ - северо-восточный, В - восточный, ЮВ - юго-восточный, Ю - южный, ЮЗ - юго-западный, З - западный, СЗ - северо-западный.
Видимость - горизонтальная дальность видимости в метрах или километрах. При видимости от 1 до 10 км при отсутствии осадков обычно наблюдается дымка, при ухудшении видимости до 1 км и менее - туман. В сухую погоду видимость может ухудшаться дымом, пылью или мглою.
Явления - указаны атмосферные явления, наблюдавшиеся в срок или в последний час перед сроком; фигурными скобками обозначены явления, наблюдавшиеся между сроками (за 1-3 часа до срока); квадратными скобками обозначены град или гололедные отложения с указанием их диаметра в мм.
Облачность - указаны через наклонную черту общая и нижняя облачность в баллах и высота нижней границы облаков в метрах; квадратными скобками обозначены формы облаков: Ci - перистые, Cs - перисто-слоистые, Cc - перисто-кучевые, Ac - высококучевые, As - высокослоистые, Sc - слоисто-кучевые, Ns - слоисто-дождевые, Cu - кучевые, Cb - кучево-дождевые. Подробнее классификацию облаков см. в Атласе облаков (PDF).
T - Температура воздуха - температура, измеренная на высоте 2 м над землей.
Td - Температура точки росы - температура, при понижении до которой содержащийся в воздухе водяной пар достигнет насыщения.
f - Относительная влажность воздуха - влажноcть воздуха, измеренная на высоте 2 м над землей.
Te - Эффективная температура - температура, которую ощущает одетый по сезону человек в тени. Характеристика душности погоды. При расчете учитывается влияние влажности воздуха и скорости ветра на теплоощущения человека.
Tes - Эффективная температура на солнце - температура, которую ощущает человек, с поправкой на солнечный нагрев. Характеристика знойности погоды. Зависит от высоты солнца над горизонтом, облачности и скорости ветра. Ночью, в пасмурную погоду, а также при ветре 12 м/с и более поправка равна нулю.
P - Атмосферное давление - приведенное к уровню моря атмосферное давление.
Po - Атмосферное давление - измеренное на уровне метеостанции атмосферное давление.
Tmin - Минимальная температура - минимум температуры воздуха на высоте 2 м над землей.
Tmax - Максимальная температура - максимум температуры воздуха на высоте 2 м над землей.
R - Количество осадков - Количество выпавших осадков за период времени, мм. При наведении курсора мыши на число - период времени, за который выпало указанное количество осадков.
R24 - Количество осадков - Количество выпавших осадков за 24 часа, мм.
S - Снежный покров - Высота снежного покрова, см. При наведении курсора мыши на число - состояние снежного покрова и степень покрытия местности в баллах.